Вернуться в каталог

USA 40 R/B DEB

АктивенUNKNOWN
NORAD 23381·DEBRIS·🇺🇸 United States

Запущен Aug 8, 1989 с Cape Canaveral Space Force Station

Loading…

Ближайшие Пролёты (ближайшие 24 часа)

TLE

СвежийSource: Space-Track

Эпоха: Sep 14, 2026, 03:18 UTC

1 23381U 89061BD  26257.13752752  .00009105  00000-0  34883-2 0  9998
2 23381  56.9000 306.1635 2269410 131.0727 250.9656 10.41187614270081

Отслеживайте USA 40 R/B DEB в реальном времени с AllMySat

Download on the App Store